Retour au catalogue

THOR ABLESTAR DEB

ActifLEO
NORAD 148·DEBRIS·🇺🇸 United States

Lancé Jun 29, 1961 depuis Cape Canaveral Space Force Station

Loading…

Prochains Passages (prochaines 24 heures)

TLE

FraisSource: Space-Track

Époque: Sep 14, 2026, 16:13 UTC

1 00148U 61015AJ  26257.67625017  .00000566  00000-0  32704-3 0  9998
2 00148  65.7689 238.6565 0152074 275.7261  82.6498 14.10965999771601

Suivez THOR ABLESTAR DEB en temps réel avec AllMySat

Download on the App Store